Flag for Canada Weather past 2 weeks in Edmonton, Alberta, Canada

Now
57 °F

Light rain. Overcast.


Feels Like: 54 °F
Forecast: 55 / 59 °F
Wind: 14 mph from West

Location: Edmonton Municipal

Current Time: Jul 25, 2014 at 1:44:36 AM

Latest Report: Jul 25, 2014 at 1:00 AM


Visibility: 9 mi

Pressure: 29.57 "Hg

Humidity: 77%

Dew point: 50 °F

Location of EdmontonLocation

Historic Weather in Edmonton — Graph

°F

Edmonton temperature yesterday

Maximum temperature yesterday: 79 °F (at 1:00 PM)
Minimum temperature yesterday: 61 °F (at 11:00 PM)
Average temperature yesterday: 70 °F

Past Weeks' High & Low Weather Summary

 TemperatureHumidityPressure
High84 °F (Jul 15, 3:00 PM)88% (Jul 24, 2:00 AM)30.27 "Hg (Jul 24, 2:00 AM)
Low50 °F (Jul 21, 5:00 AM)28% (Jul 24, 5:00 PM)29.49 "Hg (Jul 24, 5:00 PM)
Average66 °F60%29.91 "Hg
* Reported Midnight between Jul 9 and Jul 10 — Midnight between Jul 24 and Jul 25, Edmonton, Weather by CustomWeather, © 2014

Note: Actual official high and low records may vary slightly from our data, if they occured in-between our weather recording intervals... More about our weather records

Advertising

Edmonton weather history for previous 24 hours

 ConditionsComfort  
Time TempWeatherWind HumidityBarometerVisibility
12:00 AM
Jul 25
59 °FLight rain. Overcast.15 mph68%29.58 "Hg9 mi
11:00 PM
Jul 24
61 °FLight rain. Overcast.12 mph72%29.59 "Hg9 mi
10:00 PM63 °FLight rain. Overcast.13 mph77%29.57 "Hg9 mi
9:00 PM64 °FMore clouds than sun.8 mph64%29.58 "Hg9 mi
8:00 PM68 °FPassing clouds.15 mph56%29.54 "Hg9 mi
7:00 PM72 °FPassing clouds.20 mph41%29.53 "Hg9 mi
6:00 PM75 °FPartly sunny.14 mph44%29.51 "Hg9 mi
5:00 PM79 °FSunny.9 mph28%29.49 "Hg9 mi
4:00 PM79 °FScattered clouds.17 mph32%29.51 "Hg9 mi
3:00 PM77 °FPassing clouds.9 mph39%29.51 "Hg9 mi
2:00 PM79 °FSunny.7 mph42%29.52 "Hg9 mi
1:00 PM79 °FSunny.8 mph42%29.53 "Hg9 mi
12:00 PM77 °FSunny.12 mph44%29.54 "Hg9 mi
11:00 AM75 °FSunny.12 mph50%29.57 "Hg9 mi
10:00 AM73 °FSunny.13 mph57%29.59 "Hg9 mi
9:00 AM68 °FSunny.6 mph73%29.61 "Hg9 mi
8:00 AM66 °FSunny.5 mph78%29.63 "Hg9 mi
7:00 AM63 °FPassing clouds.9 mph88%29.66 "Hg9 mi
6:00 AM63 °FClear.6 mph88%29.67 "Hg9 mi
5:00 AM63 °FClear.9 mph88%29.67 "Hg9 mi
4:00 AM63 °FClear.3 mph88%29.68 "Hg9 mi
3:00 AM66 °FClear.8 mph83%29.72 "Hg9 mi
2:00 AM64 °FClear.8 mph88%29.75 "Hg9 mi
1:00 AM66 °FClear.9 mph78%29.78 "Hg9 mi
Weather by CustomWeather, © 2014

See weather overviewHow to use our weather pages